Flag for Germany Weather past 2 weeks in Cologne, North Rhine-Westphalia, Germany

Now
82 °F

Sunny.


Feels Like: 81 °F
Forecast: 57 / 69 °F
Wind: 8 mph from Southwest

Location: Koeln / Bonn

Current Time: Aug 31, 2015 at 8:09:43 PM

Latest Report: Aug 31, 2015 at 7:20 PM


Visibility: 10 mi

Pressure: 29.77 "Hg

Humidity: 37%

Dew point: 54 °F

Location of CologneLocation

Historic Weather in Cologne — Graph

°F

Cologne temperature yesterday

Maximum temperature yesterday: 93 °F (at 4:20 PM)
Minimum temperature yesterday: 66 °F (at 12:20 AM)
Average temperature yesterday: 78 °F

Past Weeks' High & Low Weather Summary

 TemperatureHumidityPressure
High93 °F (Aug 30, 4:20 PM)94% (Aug 16, 6:20 PM)30.27 "Hg (Aug 16, 6:20 PM)
Low46 °F (Aug 19, 6:50 AM)26% (Aug 23, 3:20 PM)29.56 "Hg (Aug 24, 2:20 PM)
Average66 °F69%29.98 "Hg
* Reported Aug 16 6:20 PM — Aug 31 6:50 PM, Cologne, Weather by CustomWeather, © 2015

Note: Actual official high and low records may vary slightly from our data, if they occured in-between our weather recording intervals... More about our weather records

Advertising

Cologne weather history for previous 24 hours

 ConditionsComfort  
Time TempWeatherWind HumidityBarometerVisibility
6:50 PM
Mon, Aug 31
86 °FSunny.13 mph31%29.80 "Hg10 mi
6:20 PM86 °FSunny.13 mph31%29.77 "Hg10 mi
5:50 PM88 °FSunny.14 mph29%29.80 "Hg10 mi
5:20 PM88 °FSunny.15 mph29%29.80 "Hg10 mi
4:50 PM88 °FSunny.15 mph27%29.80 "Hg10 mi
4:20 PM90 °FSunny.15 mph27%29.80 "Hg10 mi
3:50 PM90 °FSunny.15 mph29%29.80 "Hg10 mi
3:20 PM88 °FSunny.14 mph29%29.80 "Hg10 mi
2:50 PM90 °FSunny.15 mph27%29.80 "Hg10 mi
2:20 PM90 °FSunny.13 mph31%29.83 "Hg10 mi
1:50 PM88 °FSunny.17 mph31%29.83 "Hg10 mi
1:20 PM88 °FSunny.15 mph33%29.83 "Hg10 mi
12:50 PM86 °FSunny.15 mph38%29.83 "Hg10 mi
12:20 PM84 °FSunny.15 mph43%29.83 "Hg10 mi
11:50 AM82 °FSunny.13 mph42%29.86 "Hg10 mi
11:20 AM81 °FSunny.13 mph45%29.86 "Hg10 mi
10:50 AM81 °FSunny.12 mph48%29.86 "Hg10 mi
10:20 AM79 °FSunny.6 mph58%29.89 "Hg10 mi
9:50 AM77 °FSunny.6 mph61%29.89 "Hg10 mi
9:20 AM75 °FSunny.7 mph69%29.89 "Hg10 mi
8:50 AM73 °FSunny.6 mph74%29.89 "Hg10 mi
8:20 AM72 °FSunny.6 mph73%29.89 "Hg10 mi
7:50 AM68 °FSunny.2 mph83%29.89 "Hg10 mi
7:20 AM68 °FClear.5 mph83%29.89 "Hg10 mi
6:50 AM66 °FFog.5 mph94%29.89 "HgN/A
6:20 AM66 °FFog.3 mph88%29.92 "HgN/A
5:50 AM68 °FFog.7 mph88%29.92 "HgN/A
5:20 AM66 °FFog.8 mph94%29.92 "HgN/A
4:50 AM64 °FFog.3 mph94%29.92 "HgN/A
4:20 AM68 °FFog.5 mph88%29.95 "HgN/A
3:50 AM70 °FClear.2 mph83%29.95 "Hg10 mi
3:20 AM70 °FClear.2 mph83%29.95 "Hg10 mi
2:50 AM70 °FClear.6 mph83%29.95 "Hg10 mi
2:20 AM70 °FFog.1 mph83%29.95 "HgN/A
1:50 AM70 °FFog.2 mph83%29.95 "HgN/A
1:20 AM72 °FFog.2 mph83%29.98 "HgN/A
12:50 AM72 °FClear.3 mph83%29.98 "Hg10 mi
12:20 AM72 °FClear.5 mph83%29.98 "Hg10 mi
11:20 PM
Sun, Aug 30
75 °FClear.2 mph78%29.98 "Hg10 mi
10:50 PM73 °FClear.3 mph78%29.98 "Hg10 mi
10:20 PM73 °FClear.3 mph83%29.98 "Hg10 mi
9:20 PM77 °FSunny.5 mph74%29.98 "Hg10 mi
8:50 PM77 °FSunny.1 mph74%29.98 "Hg10 mi
8:20 PM81 °FSunny.6 mph66%29.98 "Hg10 mi
Weather by CustomWeather, © 2015

See weather overviewHow to use our weather pages